TimeCDT,TemperatureF,Dew PointF,Humidity,Sea Level PressureIn,VisibilityMPH,Wind Direction,Wind SpeedMPH,Gust SpeedMPH,PrecipitationIn,Events,Conditions,WindDirDegrees,DateUTC
12:15 AM,68.0,55.4,64,30.07,10.0,SSE,9.2,-,N/A,,Clear,150,2013-05-27 05:15:00
12:35 AM,68.0,57.2,68,30.06,10.0,SSE,8.1,-,N/A,,Clear,150,2013-05-27 05:35:00
12:55 AM,68.0,57.2,68,30.06,10.0,SE,8.1,-,N/A,,Clear,140,2013-05-27 05:55:00
1:15 AM,68.0,57.2,68,30.05,10.0,SSE,9.2,-,N/A,,Clear,150,2013-05-27 06:15:00
1:35 AM,68.0,57.2,68,30.05,10.0,SSE,8.1,-,N/A,,Clear,150,2013-05-27 06:35:00
1:55 AM,66.2,57.2,73,30.05,10.0,SE,8.1,-,N/A,,Clear,140,2013-05-27 06:55:00
2:15 AM,66.2,57.2,73,30.04,10.0,SSE,5.8,-,N/A,,Clear,150,2013-05-27 07:15:00
2:35 AM,64.4,57.2,77,30.04,10.0,SE,5.8,-,N/A,,Clear,140,2013-05-27 07:35:00
2:55 AM,64.4,57.2,77,30.04,10.0,SSE,4.6,-,N/A,,Clear,150,2013-05-27 07:55:00
3:15 AM,64.4,55.4,73,30.04,10.0,SSE,3.5,-,N/A,,Clear,160,2013-05-27 08:15:00
3:35 AM,64.4,57.2,77,30.04,10.0,SSE,4.6,-,N/A,,Clear,150,2013-05-27 08:35:00
3:55 AM,62.6,57.2,82,30.05,10.0,SSE,3.5,-,N/A,,Clear,150,2013-05-27 08:55:00
4:15 AM,62.6,55.4,77,30.05,10.0,Calm,Calm,-,N/A,,Clear,0,2013-05-27 09:15:00
4:35 AM,59.0,55.4,88,30.04,10.0,Calm,Calm,-,N/A,,Clear,0,2013-05-27 09:35:00
4:55 AM,62.6,57.2,82,30.04,10.0,SE,3.5,-,N/A,,Scattered Clouds,140,2013-05-27 09:55:00
5:15 AM,62.6,57.2,82,30.04,10.0,SE,3.5,-,N/A,,Mostly Cloudy,140,2013-05-27 10:15:00
5:35 AM,62.6,57.2,82,30.04,10.0,SE,3.5,-,N/A,,Scattered Clouds,130,2013-05-27 10:35:00
5:55 AM,62.6,57.2,82,30.04,10.0,SE,3.5,-,N/A,,Scattered Clouds,140,2013-05-27 10:55:00
6:15 AM,62.6,57.2,82,30.03,10.0,SE,3.5,-,N/A,,Scattered Clouds,130,2013-05-27 11:15:00
6:35 AM,64.4,57.2,77,30.02,10.0,SSE,5.8,-,N/A,,Clear,150,2013-05-27 11:35:00
6:55 AM,66.2,59.0,78,30.00,10.0,SSE,5.8,-,N/A,,Clear,150,2013-05-27 11:55:00
7:15 AM,69.8,59.0,68,30.00,10.0,SSE,6.9,-,N/A,,Clear,160,2013-05-27 12:15:00
7:35 AM,71.6,59.0,64,29.99,10.0,SSE,10.4,-,N/A,,Clear,160,2013-05-27 12:35:00
7:55 AM,71.6,59.0,64,30.00,10.0,South,10.4,-,N/A,,Clear,170,2013-05-27 12:55:00
8:15 AM,73.4,60.8,65,30.00,10.0,South,6.9,-,N/A,,Clear,170,2013-05-27 13:15:00
8:35 AM,75.2,60.8,61,30.00,10.0,South,11.5,-,N/A,,Clear,170,2013-05-27 13:35:00
8:55 AM,77.0,62.6,61,30.00,10.0,South,9.2,-,N/A,,Clear,190,2013-05-27 13:55:00
9:15 AM,75.2,62.6,65,30.00,10.0,SSW,8.1,18.4,N/A,,Clear,200,2013-05-27 14:15:00
9:35 AM,77.0,62.6,61,30.00,10.0,SSW,9.2,16.1,N/A,,Clear,200,2013-05-27 14:35:00
9:55 AM,78.8,62.6,57,30.00,10.0,SSW,11.5,18.4,N/A,,Clear,200,2013-05-27 14:55:00
10:15 AM,80.6,64.4,58,30.00,10.0,SSW,11.5,16.1,N/A,,Clear,210,2013-05-27 15:15:00
10:35 AM,82.4,64.4,54,29.99,10.0,SSW,11.5,21.9,N/A,,Clear,210,2013-05-27 15:35:00
10:55 AM,82.4,64.4,54,29.99,10.0,South,9.2,18.4,N/A,,Clear,190,2013-05-27 15:55:00
11:15 AM,84.2,64.4,51,29.98,10.0,SSW,11.5,18.4,N/A,,Clear,210,2013-05-27 16:15:00
11:35 AM,84.2,64.4,51,29.97,10.0,SSW,11.5,21.9,N/A,,Clear,200,2013-05-27 16:35:00
11:55 AM,84.2,64.4,51,29.96,10.0,SSW,13.8,20.7,N/A,,Clear,200,2013-05-27 16:55:00
12:15 PM,86.0,64.4,48,29.96,10.0,South,6.9,18.4,N/A,,Clear,190,2013-05-27 17:15:00
12:35 PM,84.2,64.4,51,29.96,10.0,South,11.5,19.6,N/A,,Scattered Clouds,190,2013-05-27 17:35:00
12:55 PM,84.2,62.6,48,29.96,10.0,SSW,12.7,20.7,N/A,,Scattered Clouds,200,2013-05-27 17:55:00
1:15 PM,87.8,64.4,46,29.96,10.0,SSW,11.5,21.9,N/A,,Scattered Clouds,200,2013-05-27 18:15:00
1:35 PM,84.2,64.4,51,29.97,10.0,SSW,13.8,23.0,N/A,,Scattered Clouds,200,2013-05-27 18:35:00
1:55 PM,86.0,62.6,45,29.96,10.0,South,11.5,24.2,N/A,,Scattered Clouds,190,2013-05-27 18:55:00
2:15 PM,86.0,62.6,45,29.95,10.0,SSW,16.1,21.9,N/A,,Scattered Clouds,200,2013-05-27 19:15:00
2:35 PM,86.0,62.6,45,29.95,10.0,SSW,12.7,23.0,N/A,,Scattered Clouds,200,2013-05-27 19:35:00
2:55 PM,86.0,60.8,43,29.94,10.0,SSW,13.8,21.9,N/A,,Scattered Clouds,200,2013-05-27 19:55:00
3:15 PM,86.0,60.8,43,29.93,10.0,South,11.5,19.6,N/A,,Scattered Clouds,190,2013-05-27 20:15:00
3:35 PM,86.0,60.8,43,29.92,10.0,SSW,8.1,21.9,N/A,,Clear,200,2013-05-27 20:35:00
3:55 PM,87.8,60.8,40,29.91,10.0,SSW,13.8,23.0,N/A,,Scattered Clouds,200,2013-05-27 20:55:00
4:15 PM,84.2,57.2,40,29.92,10.0,South,11.5,19.6,N/A,,Scattered Clouds,190,2013-05-27 21:15:00
4:35 PM,84.2,59.0,42,29.91,10.0,SSW,12.7,19.6,N/A,,Scattered Clouds,200,2013-05-27 21:35:00
4:55 PM,82.4,59.0,45,29.92,10.0,SSW,10.4,18.4,N/A,,Scattered Clouds,200,2013-05-27 21:55:00
5:15 PM,82.4,59.0,45,29.91,10.0,South,9.2,18.4,N/A,,Scattered Clouds,190,2013-05-27 22:15:00
5:35 PM,82.4,60.8,48,29.91,10.0,SSW,10.4,16.1,N/A,,Mostly Cloudy,200,2013-05-27 22:35:00
5:55 PM,80.6,62.6,54,29.91,10.0,South,10.4,16.1,N/A,,Mostly Cloudy,190,2013-05-27 22:55:00
6:15 PM,71.6,66.2,83,29.97,5.0,West,20.7,32.2,0.12,Rain,Heavy Rain,280,2013-05-27 23:15:00
6:35 PM,68.0,64.4,88,29.95,10.0,WNW,13.8,19.6,0.05,Rain-Thunderstorm,Light Thunderstorms and Rain,300,2013-05-27 23:35:00
6:55 PM,68.0,66.2,94,29.95,10.0,West,6.9,-,0.01,Rain-Thunderstorm,Light Thunderstorms and Rain,260,2013-05-27 23:55:00
7:15 PM,66.2,64.4,94,29.92,10.0,South,4.6,-,0.04,Rain,Light Rain,190,2013-05-28 00:15:00
7:35 PM,66.2,64.4,94,29.90,10.0,South,3.5,-,0.05,Rain,Light Rain,170,2013-05-28 00:35:00
7:55 PM,66.2,64.4,94,29.84,10.0,SE,9.2,-,0.01,Rain,Light Rain,140,2013-05-28 00:55:00
8:15 PM,68.0,62.6,83,29.80,10.0,East,5.8,18.4,0.01,Rain-Thunderstorm,Light Thunderstorms and Rain,80,2013-05-28 01:15:00
8:35 PM,68.0,64.4,88,29.86,10.0,South,10.4,17.3,0.01,,Clear,170,2013-05-28 01:35:00
8:55 PM,66.2,64.4,94,29.89,10.0,Calm,Calm,-,N/A,,Clear,0,2013-05-28 01:55:00
9:15 PM,66.2,64.4,94,29.90,10.0,SE,3.5,-,N/A,,Clear,140,2013-05-28 02:15:00
9:35 PM,66.2,64.4,94,29.91,10.0,South,9.2,-,N/A,,Clear,170,2013-05-28 02:35:00
9:55 PM,66.2,64.4,94,29.92,10.0,SSE,4.6,-,N/A,,Clear,160,2013-05-28 02:55:00
10:15 PM,66.2,64.4,94,29.92,10.0,SSE,5.8,-,N/A,,Clear,150,2013-05-28 03:15:00
10:35 PM,66.2,64.4,94,29.93,10.0,SSE,4.6,-,N/A,,Clear,150,2013-05-28 03:35:00
10:55 PM,64.4,64.4,100,29.93,10.0,SSE,3.5,-,N/A,,Clear,150,2013-05-28 03:55:00
11:15 PM,64.4,64.4,100,29.93,10.0,SE,4.6,-,N/A,,Clear,140,2013-05-28 04:15:00
11:35 PM,64.4,64.4,100,29.93,10.0,SE,5.8,-,N/A,,Clear,140,2013-05-28 04:35:00
11:55 PM,66.2,64.4,94,29.93,10.0,SSE,6.9,-,N/A,,Clear,150,2013-05-28 04:55:00